Time,TemperatureF,DewpointF,PressureIn,WindDirection,WindDirectionDegrees,WindSpeedMPH,WindSpeedGustMPH,Humidity,HourlyPrecipIn,Conditions,Clouds,dailyrainin,SoftwareType,DateUTC
2013-06-26 00:03:00,76.6,73.4,29.67,SSW,213,0.0,3.0,90,0.00,,,0.00,VWS V14.01,2013-06-26 05:03:00,
2013-06-26 00:08:00,76.5,73.3,29.67,SSE,163,0.0,4.0,90,0.00,,,0.00,VWS V14.01,2013-06-26 05:08:00,
2013-06-26 00:14:00,76.4,73.2,29.67,South,169,0.0,4.0,90,0.00,,,0.00,VWS V14.01,2013-06-26 05:14:00,
2013-06-26 00:19:00,76.3,73.2,29.67,South,172,0.0,2.0,90,0.00,,,0.00,VWS V14.01,2013-06-26 05:19:00,
2013-06-26 00:24:00,76.2,73.1,29.66,South,180,0.0,2.0,90,0.00,,,0.00,VWS V14.01,2013-06-26 05:24:00,
2013-06-26 00:29:00,76.0,73.2,29.66,South,180,0.0,0.0,91,0.00,,,0.00,VWS V14.01,2013-06-26 05:29:00,
2013-06-26 00:34:00,75.9,73.1,29.66,South,180,0.0,2.0,91,0.00,,,0.00,VWS V14.01,2013-06-26 05:34:00,
2013-06-26 00:39:00,75.8,73.0,29.65,South,182,0.0,2.0,91,0.00,,,0.00,VWS V14.01,2013-06-26 05:39:00,
2013-06-26 00:44:00,75.7,72.9,29.65,SW,219,0.0,0.0,91,0.00,,,0.00,VWS V14.01,2013-06-26 05:44:00,
2013-06-26 00:49:00,75.6,73.1,29.65,SW,226,0.0,3.0,92,0.00,,,0.00,VWS V14.01,2013-06-26 05:49:00,
2013-06-26 00:54:00,75.5,72.7,29.64,SSW,196,0.0,3.0,91,0.00,,,0.00,VWS V14.01,2013-06-26 05:54:00,
2013-06-26 00:59:00,75.4,72.9,29.65,SSW,196,1.0,1.0,92,0.00,,,0.00,VWS V14.01,2013-06-26 05:59:00,
2013-06-26 01:04:00,75.4,72.9,29.64,SSW,206,3.0,3.0,92,0.00,,,0.00,VWS V14.01,2013-06-26 06:04:00,
2013-06-26 01:10:00,75.3,72.8,29.64,SSW,205,0.0,3.0,92,0.00,,,0.00,VWS V14.01,2013-06-26 06:10:00,
2013-06-26 01:15:00,75.2,72.7,29.64,SSW,206,0.0,1.0,92,0.00,,,0.00,VWS V14.01,2013-06-26 06:15:00,
2013-06-26 01:20:00,75.1,72.6,29.64,SSW,206,0.0,2.0,92,0.00,,,0.00,VWS V14.01,2013-06-26 06:20:00,
2013-06-26 01:25:00,75.0,72.5,29.64,SSW,206,0.0,2.0,92,0.00,,,0.00,VWS V14.01,2013-06-26 06:25:00,
2013-06-26 01:30:00,74.9,72.7,29.65,SSW,205,0.0,0.0,93,0.00,,,0.00,VWS V14.01,2013-06-26 06:30:00,
2013-06-26 01:35:00,74.9,72.7,29.65,SSW,205,0.0,2.0,93,0.00,,,0.00,VWS V14.01,2013-06-26 06:35:00,
2013-06-26 01:40:00,74.8,72.6,29.64,SSW,205,0.0,2.0,93,0.00,,,0.00,VWS V14.01,2013-06-26 06:40:00,
2013-06-26 01:45:00,74.7,72.6,29.64,SW,217,0.0,1.0,93,0.00,,,0.00,VWS V14.01,2013-06-26 06:45:00,
2013-06-26 01:50:00,74.7,72.6,29.65,SW,214,0.0,3.0,93,0.00,,,0.00,VWS V14.01,2013-06-26 06:50:00,
2013-06-26 01:55:00,74.7,72.6,29.65,SSW,212,1.0,5.0,93,0.00,,,0.00,VWS V14.01,2013-06-26 06:55:00,
2013-06-26 02:00:00,74.7,72.6,29.65,SW,216,0.0,4.0,93,0.00,,,0.00,VWS V14.01,2013-06-26 07:00:00,
2013-06-26 02:06:00,74.6,72.4,29.65,SSW,209,4.0,5.0,93,0.00,,,0.00,VWS V14.01,2013-06-26 07:06:00,
2013-06-26 02:11:00,74.6,72.4,29.64,SW,218,3.0,6.0,93,0.00,,,0.00,VWS V14.01,2013-06-26 07:11:00,
2013-06-26 02:16:00,74.5,72.3,29.64,SSW,195,0.0,5.0,93,0.00,,,0.00,VWS V14.01,2013-06-26 07:16:00,
2013-06-26 02:21:00,74.5,72.3,29.64,SSW,202,2.0,5.0,93,0.00,,,0.00,VWS V14.01,2013-06-26 07:21:00,
2013-06-26 02:26:00,74.5,72.3,29.64,SSW,209,2.0,5.0,93,0.00,,,0.00,VWS V14.01,2013-06-26 07:26:00,
2013-06-26 02:31:00,74.4,72.2,29.64,SSW,205,1.0,2.0,93,0.00,,,0.00,VWS V14.01,2013-06-26 07:31:00,
2013-06-26 02:36:00,74.4,72.6,29.64,SSW,210,0.0,3.0,94,0.00,,,0.00,VWS V14.01,2013-06-26 07:36:00,
2013-06-26 02:41:00,74.3,72.5,29.63,SSW,208,0.0,5.0,94,0.00,,,0.00,VWS V14.01,2013-06-26 07:41:00,
2013-06-26 02:46:00,74.3,72.5,29.63,SSW,209,0.0,1.0,94,0.00,,,0.00,VWS V14.01,2013-06-26 07:46:00,
2013-06-26 02:51:00,74.2,72.4,29.63,SSW,209,0.0,1.0,94,0.00,,,0.00,VWS V14.01,2013-06-26 07:51:00,
2013-06-26 02:57:00,74.1,72.3,29.64,SSW,209,0.0,1.0,94,0.00,,,0.00,VWS V14.01,2013-06-26 07:57:00,
2013-06-26 03:02:00,74.0,72.2,29.64,SSW,210,0.0,1.0,94,0.00,,,0.00,VWS V14.01,2013-06-26 08:02:00,
2013-06-26 03:07:00,74.0,72.2,29.63,SSW,213,0.0,1.0,94,0.00,,,0.00,VWS V14.01,2013-06-26 08:07:00,
2013-06-26 03:12:00,73.9,72.1,29.63,SSW,213,0.0,1.0,94,0.00,,,0.00,VWS V14.01,2013-06-26 08:12:00,
2013-06-26 03:17:00,73.7,71.9,29.63,SSW,213,0.0,1.0,94,0.00,,,0.00,VWS V14.01,2013-06-26 08:17:00,
2013-06-26 03:22:00,73.7,71.9,29.63,SSW,213,0.0,1.0,94,0.00,,,0.00,VWS V14.01,2013-06-26 08:22:00,
2013-06-26 03:27:00,73.6,72.1,29.63,SW,214,0.0,1.0,95,0.00,,,0.00,VWS V14.01,2013-06-26 08:27:00,
2013-06-26 03:32:00,73.5,72.0,29.63,SW,214,0.0,0.0,95,0.00,,,0.00,VWS V14.01,2013-06-26 08:32:00,
2013-06-26 03:37:00,73.5,72.0,29.63,SW,214,0.0,0.0,95,0.00,,,0.00,VWS V14.01,2013-06-26 08:37:00,
2013-06-26 03:42:00,73.5,72.0,29.63,SSW,213,0.0,1.0,95,0.00,,,0.00,VWS V14.01,2013-06-26 08:42:00,
2013-06-26 03:47:00,73.4,71.9,29.63,SSW,213,0.0,0.0,95,0.00,,,0.00,VWS V14.01,2013-06-26 08:47:00,
2013-06-26 03:53:00,73.3,71.8,29.63,SSW,213,0.0,0.0,95,0.00,,,0.00,VWS V14.01,2013-06-26 08:53:00,
2013-06-26 03:58:00,73.3,71.8,29.64,SW,217,0.0,4.0,95,0.00,,,0.00,VWS V14.01,2013-06-26 08:58:00,
2013-06-26 04:03:00,73.2,71.7,29.63,SW,217,0.0,0.0,95,0.00,,,0.00,VWS V14.01,2013-06-26 09:03:00,
2013-06-26 04:08:00,73.1,71.6,29.64,SW,216,0.0,0.0,95,0.00,,,0.00,VWS V14.01,2013-06-26 09:08:00,
2013-06-26 04:13:00,73.0,71.5,29.64,SW,216,0.0,1.0,95,0.00,,,0.00,VWS V14.01,2013-06-26 09:13:00,
2013-06-26 04:18:00,73.0,71.5,29.64,SW,217,0.0,0.0,95,0.00,,,0.00,VWS V14.01,2013-06-26 09:18:00,
2013-06-26 04:23:00,73.0,71.5,29.64,SW,217,0.0,1.0,95,0.00,,,0.00,VWS V14.01,2013-06-26 09:23:00,
2013-06-26 04:28:00,73.0,71.8,29.65,SW,217,0.0,1.0,96,0.00,,,0.00,VWS V14.01,2013-06-26 09:28:00,
2013-06-26 04:33:00,72.9,71.7,29.65,SW,217,0.0,1.0,96,0.00,,,0.00,VWS V14.01,2013-06-26 09:33:00,
2013-06-26 04:38:00,72.9,71.4,29.65,SW,216,0.0,3.0,95,0.00,,,0.00,VWS V14.01,2013-06-26 09:38:00,
2013-06-26 04:43:00,72.9,71.4,29.65,SW,216,0.0,3.0,95,0.00,,,0.00,VWS V14.01,2013-06-26 09:43:00,
2013-06-26 04:49:00,72.7,71.2,29.64,SW,217,0.0,1.0,95,0.00,,,0.00,VWS V14.01,2013-06-26 09:49:00,
2013-06-26 04:54:00,72.6,71.1,29.64,SW,217,0.0,1.0,95,0.00,,,0.00,VWS V14.01,2013-06-26 09:54:00,
2013-06-26 04:59:00,72.6,71.4,29.64,SW,217,0.0,0.0,96,0.00,,,0.00,VWS V14.01,2013-06-26 09:59:00,
2013-06-26 05:04:00,72.5,71.3,29.64,SW,217,0.0,1.0,96,0.00,,,0.00,VWS V14.01,2013-06-26 10:04:00,
2013-06-26 05:09:00,72.5,71.3,29.64,SW,216,0.0,1.0,96,0.00,,,0.00,VWS V14.01,2013-06-26 10:09:00,
2013-06-26 05:14:00,72.4,71.2,29.63,SW,216,0.0,0.0,96,0.00,,,0.00,VWS V14.01,2013-06-26 10:14:00,
2013-06-26 05:19:00,72.4,71.2,29.63,SW,215,1.0,3.0,96,0.00,,,0.00,VWS V14.01,2013-06-26 10:19:00,
2013-06-26 05:24:00,72.4,71.2,29.63,SW,215,0.0,3.0,96,0.00,,,0.00,VWS V14.01,2013-06-26 10:24:00,
2013-06-26 05:30:00,72.3,71.1,29.64,SW,215,0.0,0.0,96,0.00,,,0.00,VWS V14.01,2013-06-26 10:30:00,
2013-06-26 05:35:00,72.2,71.0,29.64,SW,215,0.0,0.0,96,0.00,,,0.00,VWS V14.01,2013-06-26 10:35:00,
2013-06-26 05:40:00,72.2,71.0,29.64,SW,215,0.0,0.0,96,0.00,,,0.00,VWS V14.01,2013-06-26 10:40:00,
2013-06-26 05:45:00,72.2,71.0,29.63,SW,215,0.0,1.0,96,0.00,,,0.00,VWS V14.01,2013-06-26 10:45:00,
2013-06-26 05:50:00,72.3,71.1,29.63,SW,215,0.0,1.0,96,0.00,,,0.00,VWS V14.01,2013-06-26 10:50:00,
2013-06-26 05:55:00,72.3,71.1,29.63,SW,215,0.0,1.0,96,0.00,,,0.00,VWS V14.01,2013-06-26 10:55:00,
2013-06-26 06:00:00,72.3,71.1,29.64,SW,215,0.0,0.0,96,0.00,,,0.00,VWS V14.01,2013-06-26 11:00:00,
2013-06-26 06:05:00,72.3,71.1,29.64,SW,215,0.0,0.0,96,0.00,,,0.00,VWS V14.01,2013-06-26 11:05:00,
2013-06-26 06:10:00,72.4,71.2,29.65,SW,215,0.0,0.0,96,0.00,,,0.00,VWS V14.01,2013-06-26 11:10:00,
2013-06-26 06:15:00,72.4,71.2,29.66,SW,215,0.0,0.0,96,0.00,,,0.00,VWS V14.01,2013-06-26 11:15:00,
2013-06-26 06:20:00,72.5,71.3,29.66,SW,215,0.0,0.0,96,0.00,,,0.00,VWS V14.01,2013-06-26 11:20:00,
2013-06-26 06:25:00,72.5,71.3,29.67,SW,215,0.0,0.0,96,0.00,,,0.00,VWS V14.01,2013-06-26 11:25:00,
2013-06-26 06:30:00,72.6,71.4,29.66,SW,215,0.0,0.0,96,0.00,,,0.00,VWS V14.01,2013-06-26 11:30:00,
2013-06-26 06:36:00,72.6,71.4,29.66,SW,215,0.0,0.0,96,0.00,,,0.00,VWS V14.01,2013-06-26 11:36:00,
2013-06-26 06:41:00,72.7,71.5,29.65,SW,215,0.0,0.0,96,0.00,,,0.00,VWS V14.01,2013-06-26 11:41:00,
2013-06-26 06:46:00,72.8,71.6,29.64,SW,215,0.0,1.0,96,0.00,,,0.00,VWS V14.01,2013-06-26 11:46:00,
2013-06-26 06:51:00,73.0,71.8,29.64,SW,215,0.0,1.0,96,0.00,,,0.00,VWS V14.01,2013-06-26 11:51:00,
2013-06-26 06:56:00,73.1,71.9,29.64,SSW,205,2.0,3.0,96,0.00,,,0.00,VWS V14.01,2013-06-26 11:56:00,
2013-06-26 07:01:00,73.2,72.0,29.64,SSE,163,4.0,5.0,96,0.00,,,0.00,VWS V14.01,2013-06-26 12:01:00,
2013-06-26 07:06:00,73.4,72.2,29.64,SE,140,1.0,6.0,96,0.00,,,0.00,VWS V14.01,2013-06-26 12:06:00,
2013-06-26 07:11:00,73.7,72.2,29.64,SE,140,2.0,6.0,95,0.00,,,0.00,VWS V14.01,2013-06-26 12:11:00,
2013-06-26 07:16:00,74.1,72.6,29.64,SE,142,0.0,4.0,95,0.00,,,0.00,VWS V14.01,2013-06-26 12:16:00,
2013-06-26 07:21:00,74.5,72.7,29.64,SSE,148,1.0,4.0,94,0.00,,,0.00,VWS V14.01,2013-06-26 12:21:00,
2013-06-26 07:26:00,74.9,72.7,29.63,SSE,155,4.0,6.0,93,0.00,,,0.00,VWS V14.01,2013-06-26 12:26:00,
2013-06-26 07:32:00,75.0,72.8,29.63,SSE,155,1.0,5.0,93,0.00,,,0.00,VWS V14.01,2013-06-26 12:32:00,
2013-06-26 07:37:00,75.0,72.8,29.62,SE,146,0.0,5.0,93,0.00,,,0.00,VWS V14.01,2013-06-26 12:37:00,
2013-06-26 07:42:00,75.1,72.6,29.61,SSE,149,0.0,5.0,92,0.00,,,0.00,VWS V14.01,2013-06-26 12:42:00,
2013-06-26 07:47:00,75.5,73.3,29.62,SSW,194,0.0,4.0,93,0.00,,,0.00,VWS V14.01,2013-06-26 12:47:00,
2013-06-26 07:52:00,76.0,73.2,29.63,SSW,193,2.0,5.0,91,0.00,,,0.00,VWS V14.01,2013-06-26 12:52:00,
2013-06-26 07:57:00,76.4,73.6,29.63,SSW,205,0.0,5.0,91,0.00,,,0.00,VWS V14.01,2013-06-26 12:57:00,
2013-06-26 08:02:00,77.1,73.6,29.63,SSW,207,0.0,4.0,89,0.00,,,0.00,VWS V14.01,2013-06-26 13:02:00,
2013-06-26 08:07:00,77.6,74.1,29.63,SSW,213,2.0,4.0,89,0.00,,,0.00,VWS V14.01,2013-06-26 13:07:00,
2013-06-26 08:12:00,77.8,74.0,29.65,South,190,0.0,5.0,88,0.00,,,0.00,VWS V14.01,2013-06-26 13:12:00,
2013-06-26 08:17:00,77.7,73.9,29.64,SSW,201,1.0,4.0,88,0.00,,,0.00,VWS V14.01,2013-06-26 13:17:00,
2013-06-26 08:22:00,77.5,73.7,29.63,South,187,0.0,4.0,88,0.00,,,0.00,VWS V14.01,2013-06-26 13:22:00,
2013-06-26 08:28:00,77.5,74.0,29.63,SSE,158,2.0,5.0,89,0.00,,,0.00,VWS V14.01,2013-06-26 13:28:00,
2013-06-26 08:33:00,77.2,73.7,29.63,SSE,158,1.0,4.0,89,0.00,,,0.00,VWS V14.01,2013-06-26 13:33:00,
2013-06-26 08:38:00,77.0,73.5,29.63,SSE,158,0.0,4.0,89,0.00,,,0.00,VWS V14.01,2013-06-26 13:38:00,
2013-06-26 08:43:00,77.0,73.5,29.63,SSE,158,0.0,4.0,89,0.00,,,0.00,VWS V14.01,2013-06-26 13:43:00,
2013-06-26 08:48:00,77.1,73.9,29.64,SW,214,0.0,4.0,90,0.00,,,0.00,VWS V14.01,2013-06-26 13:48:00,
2013-06-26 08:53:00,77.1,73.9,29.63,SW,214,0.0,4.0,90,0.00,,,0.00,VWS V14.01,2013-06-26 13:53:00,
2013-06-26 08:58:00,77.2,74.0,29.63,SW,214,0.0,4.0,90,0.00,,,0.00,VWS V14.01,2013-06-26 13:58:00,
2013-06-26 09:03:00,77.1,73.9,29.63,SW,214,0.0,2.0,90,0.00,,,0.00,VWS V14.01,2013-06-26 14:03:00,
2013-06-26 09:08:00,77.1,73.9,29.63,SW,214,0.0,2.0,90,0.00,,,0.00,VWS V14.01,2013-06-26 14:08:00,
2013-06-26 09:14:00,77.1,73.9,29.63,SW,225,0.0,3.0,90,0.00,,,0.00,VWS V14.01,2013-06-26 14:14:00,
2013-06-26 09:19:00,77.1,73.9,29.63,SW,234,3.0,7.0,90,0.00,,,0.00,VWS V14.01,2013-06-26 14:19:00,
2013-06-26 09:24:00,77.1,73.9,29.64,SW,221,0.0,7.0,90,0.00,,,0.00,VWS V14.01,2013-06-26 14:24:00,
2013-06-26 09:29:00,77.1,73.9,29.64,WSW,245,2.0,2.0,90,0.00,,,0.00,VWS V14.01,2013-06-26 14:29:00,
2013-06-26 09:34:00,77.2,74.0,29.65,SSW,213,2.0,5.0,90,0.00,,,0.00,VWS V14.01,2013-06-26 14:34:00,
2013-06-26 09:39:00,77.3,74.1,29.65,SW,219,0.0,5.0,90,0.00,,,0.00,VWS V14.01,2013-06-26 14:39:00,
2013-06-26 09:44:00,77.4,73.9,29.65,SW,236,0.0,1.0,89,0.00,,,0.00,VWS V14.01,2013-06-26 14:44:00,
2013-06-26 09:49:00,77.5,74.0,29.65,SSW,202,0.0,6.0,89,0.00,,,0.00,VWS V14.01,2013-06-26 14:49:00,
2013-06-26 09:54:00,77.6,74.1,29.66,SSW,205,0.0,6.0,89,0.00,,,0.00,VWS V14.01,2013-06-26 14:54:00,
2013-06-26 09:59:00,78.0,74.2,29.66,NNW,333,0.0,3.0,88,0.00,,,0.00,VWS V14.01,2013-06-26 14:59:00,
2013-06-26 10:05:00,78.3,74.5,29.66,South,186,0.0,5.0,88,0.00,,,0.00,VWS V14.01,2013-06-26 15:05:00,
2013-06-26 10:10:00,78.5,74.7,29.66,WSW,244,1.0,5.0,88,0.00,,,0.00,VWS V14.01,2013-06-26 15:10:00,
2013-06-26 10:15:00,78.8,74.6,29.67,WSW,242,0.0,0.0,87,0.00,,,0.00,VWS V14.01,2013-06-26 15:15:00,
2013-06-26 10:20:00,79.0,74.8,29.66,WNW,292,4.0,4.0,87,0.00,,,0.00,VWS V14.01,2013-06-26 15:20:00,
2013-06-26 10:25:00,78.9,74.4,29.66,West,281,0.0,4.0,86,0.00,,,0.00,VWS V14.01,2013-06-26 15:25:00,
2013-06-26 10:30:00,79.0,74.5,29.67,West,269,0.0,3.0,86,0.00,,,0.00,VWS V14.01,2013-06-26 15:30:00,
2013-06-26 10:35:00,79.0,74.5,29.67,NW,306,0.0,6.0,86,0.00,,,0.00,VWS V14.01,2013-06-26 15:35:00,
2013-06-26 10:40:00,78.7,74.2,29.67,WNW,298,4.0,6.0,86,0.00,,,0.00,VWS V14.01,2013-06-26 15:40:00,
2013-06-26 10:45:00,78.6,74.4,29.67,WNW,297,0.0,0.0,87,0.00,,,0.00,VWS V14.01,2013-06-26 15:45:00,
2013-06-26 10:51:00,78.7,74.5,29.67,WNW,298,0.0,2.0,87,0.00,,,0.00,VWS V14.01,2013-06-26 15:51:00,
2013-06-26 10:56:00,78.9,74.7,29.67,WNW,296,1.0,5.0,87,0.00,,,0.00,VWS V14.01,2013-06-26 15:56:00,
2013-06-26 11:01:00,79.0,74.8,29.67,WNW,295,0.0,1.0,87,0.00,,,0.00,VWS V14.01,2013-06-26 16:01:00,
2013-06-26 11:06:00,79.6,75.1,29.67,WNW,295,0.0,2.0,86,0.00,,,0.00,VWS V14.01,2013-06-26 16:06:00,
2013-06-26 11:11:00,80.0,75.4,29.67,WNW,290,0.0,5.0,86,0.00,,,0.00,VWS V14.01,2013-06-26 16:11:00,
2013-06-26 11:16:00,80.2,74.9,29.67,WNW,290,1.0,3.0,84,0.00,,,0.00,VWS V14.01,2013-06-26 16:16:00,
2013-06-26 11:21:00,80.2,74.9,29.67,WNW,290,0.0,3.0,84,0.00,,,0.00,VWS V14.01,2013-06-26 16:21:00,
2013-06-26 11:26:00,80.0,74.7,29.67,WNW,290,0.0,3.0,84,0.00,,,0.00,VWS V14.01,2013-06-26 16:26:00,
2013-06-26 11:31:00,79.9,75.0,29.67,WNW,290,0.0,1.0,85,0.00,,,0.00,VWS V14.01,2013-06-26 16:31:00,
2013-06-26 11:36:00,80.1,75.2,29.68,WNW,290,0.0,3.0,85,0.00,,,0.00,VWS V14.01,2013-06-26 16:36:00,
2013-06-26 11:41:00,80.4,75.5,29.67,WNW,290,0.0,3.0,85,0.00,,,0.00,VWS V14.01,2013-06-26 16:41:00,
2013-06-26 11:46:00,80.9,75.6,29.67,WNW,292,1.0,3.0,84,0.00,,,0.00,VWS V14.01,2013-06-26 16:46:00,
2013-06-26 11:52:00,81.9,75.9,29.67,West,275,1.0,4.0,82,0.00,,,0.00,VWS V14.01,2013-06-26 16:52:00,
2013-06-26 11:57:00,82.8,76.0,29.67,WSW,256,2.0,4.0,80,0.00,,,0.00,VWS V14.01,2013-06-26 16:57:00,
2013-06-26 12:02:00,83.4,75.8,29.67,West,277,0.0,5.0,78,0.00,,,0.00,VWS V14.01,2013-06-26 17:02:00,
2013-06-26 12:07:00,84.5,76.9,29.67,West,275,0.0,5.0,78,0.00,,,0.00,VWS V14.01,2013-06-26 17:07:00,
2013-06-26 12:12:00,84.7,76.3,29.67,WNW,291,2.0,7.0,76,0.00,,,0.00,VWS V14.01,2013-06-26 17:12:00,
2013-06-26 12:17:00,84.2,76.2,29.66,NW,309,0.0,5.0,77,0.00,,,0.00,VWS V14.01,2013-06-26 17:17:00,
2013-06-26 12:22:00,84.2,76.2,29.66,WSW,248,0.0,5.0,77,0.00,,,0.00,VWS V14.01,2013-06-26 17:22:00,
2013-06-26 12:27:00,84.3,76.3,29.66,WNW,294,2.0,5.0,77,0.00,,,0.00,VWS V14.01,2013-06-26 17:27:00,
2013-06-26 12:33:00,83.9,75.9,29.67,WSW,240,1.0,6.0,77,0.00,,,0.00,VWS V14.01,2013-06-26 17:33:00,
2013-06-26 12:38:00,83.4,75.4,29.66,SW,235,0.0,6.0,77,0.00,,,0.00,VWS V14.01,2013-06-26 17:38:00,
2013-06-26 12:43:00,83.3,75.7,29.66,WNW,284,2.0,7.0,78,0.00,,,0.00,VWS V14.01,2013-06-26 17:43:00,
2013-06-26 12:48:00,83.1,75.9,29.65,WNW,282,3.0,7.0,79,0.00,,,0.00,VWS V14.01,2013-06-26 17:48:00,
2013-06-26 12:53:00,83.8,77.0,29.65,WNW,299,4.0,7.0,80,0.00,,,0.00,VWS V14.01,2013-06-26 17:53:00,
2013-06-26 12:58:00,84.7,76.3,29.65,WNW,294,4.0,7.0,76,0.00,,,0.00,VWS V14.01,2013-06-26 17:58:00,
2013-06-26 13:03:00,85.0,76.2,29.66,WNW,296,1.0,7.0,75,0.00,,,0.00,VWS V14.01,2013-06-26 18:03:00,
2013-06-26 13:08:00,85.6,76.0,29.66,West,263,2.0,7.0,73,0.00,,,0.00,VWS V14.01,2013-06-26 18:08:00,
2013-06-26 13:13:00,85.7,76.1,29.66,NNW,327,3.0,7.0,73,0.00,,,0.00,VWS V14.01,2013-06-26 18:13:00,
2013-06-26 13:18:00,85.5,75.4,29.66,WNW,292,4.0,6.0,72,0.00,,,0.00,VWS V14.01,2013-06-26 18:18:00,
2013-06-26 13:24:00,85.8,76.6,29.66,NW,307,0.0,6.0,74,0.00,,,0.00,VWS V14.01,2013-06-26 18:24:00,
2013-06-26 13:29:00,85.8,74.5,29.66,WNW,289,9.0,9.0,69,0.00,,,0.00,VWS V14.01,2013-06-26 18:29:00,
2013-06-26 13:34:00,85.8,74.9,29.65,WNW,301,3.0,9.0,70,0.00,,,0.00,VWS V14.01,2013-06-26 18:34:00,
2013-06-26 13:39:00,86.3,75.4,29.65,North,355,2.0,9.0,70,0.00,,,0.00,VWS V14.01,2013-06-26 18:39:00,
2013-06-26 13:44:00,86.2,74.8,29.65,WNW,289,1.0,1.0,69,0.00,,,0.00,VWS V14.01,2013-06-26 18:44:00,
2013-06-26 13:49:00,86.1,74.3,29.65,NW,313,4.0,4.0,68,0.00,,,0.00,VWS V14.01,2013-06-26 18:49:00,
2013-06-26 13:54:00,86.4,74.2,29.65,WNW,288,3.0,9.0,67,0.00,,,0.00,VWS V14.01,2013-06-26 18:54:00,
2013-06-26 13:59:00,87.0,73.8,29.65,NNW,346,4.0,4.0,65,0.00,,,0.00,VWS V14.01,2013-06-26 18:59:00,
2013-06-26 14:04:00,87.1,73.9,29.65,WNW,298,1.0,4.0,65,0.00,,,0.00,VWS V14.01,2013-06-26 19:04:00,
2013-06-26 14:09:00,87.2,74.9,29.65,WNW,294,3.0,5.0,67,0.00,,,0.00,VWS V14.01,2013-06-26 19:09:00,
2013-06-26 14:15:00,88.0,75.7,29.65,West,275,0.0,2.0,67,0.00,,,0.00,VWS V14.01,2013-06-26 19:15:00,
2013-06-26 14:20:00,88.2,75.0,29.65,West,269,1.0,2.0,65,0.00,,,0.00,VWS V14.01,2013-06-26 19:20:00,
2013-06-26 14:25:00,87.8,74.6,29.66,West,279,0.0,4.0,65,0.00,,,0.00,VWS V14.01,2013-06-26 19:25:00,
2013-06-26 14:30:00,87.2,73.6,29.66,NNW,340,1.0,2.0,64,0.00,,,0.00,VWS V14.01,2013-06-26 19:30:00,
2013-06-26 14:35:00,86.7,73.5,29.66,WNW,299,0.0,5.0,65,0.00,,,0.00,VWS V14.01,2013-06-26 19:35:00,
2013-06-26 14:40:00,86.8,73.6,29.66,North,5,1.0,8.0,65,0.00,,,0.00,VWS V14.01,2013-06-26 19:40:00,
2013-06-26 14:45:00,87.4,72.3,29.67,NW,311,0.0,4.0,61,0.00,,,0.00,VWS V14.01,2013-06-26 19:45:00,
2013-06-26 14:50:00,87.9,72.3,29.67,WSW,249,1.0,4.0,60,0.00,,,0.00,VWS V14.01,2013-06-26 19:50:00,
2013-06-26 14:56:00,88.6,71.9,29.67,WNW,296,0.0,4.0,58,0.00,,,0.00,VWS V14.01,2013-06-26 19:56:00,
2013-06-26 15:01:00,89.0,72.3,29.67,West,259,2.0,2.0,58,0.00,,,0.00,VWS V14.01,2013-06-26 20:01:00,
2013-06-26 15:06:00,89.0,71.3,29.67,WNW,297,0.0,4.0,56,0.00,,,0.00,VWS V14.01,2013-06-26 20:06:00,
2013-06-26 15:11:00,89.2,72.5,29.67,WNW,297,0.0,4.0,58,0.00,,,0.00,VWS V14.01,2013-06-26 20:11:00,
2013-06-26 15:16:00,89.4,71.1,29.67,ESE,113,2.0,5.0,55,0.00,,,0.00,VWS V14.01,2013-06-26 20:16:00,
2013-06-26 15:21:00,89.4,71.1,29.67,WNW,290,2.0,5.0,55,0.00,,,0.00,VWS V14.01,2013-06-26 20:21:00,
2013-06-26 15:26:00,88.7,71.0,29.67,WNW,291,0.0,5.0,56,0.00,,,0.00,VWS V14.01,2013-06-26 20:26:00,
2013-06-26 15:31:00,88.1,71.5,29.67,WNW,291,0.0,2.0,58,0.00,,,0.00,VWS V14.01,2013-06-26 20:31:00,
2013-06-26 15:36:00,88.1,72.5,29.67,NNW,333,0.0,2.0,60,0.00,,,0.00,VWS V14.01,2013-06-26 20:36:00,
2013-06-26 15:41:00,88.3,72.2,29.67,West,273,5.0,6.0,59,0.00,,,0.00,VWS V14.01,2013-06-26 20:41:00,
2013-06-26 15:46:00,88.3,71.2,29.67,NW,321,1.0,4.0,57,0.00,,,0.00,VWS V14.01,2013-06-26 20:46:00,
2013-06-26 15:51:00,88.4,69.7,29.67,NNE,32,1.0,7.0,54,0.00,,,0.00,VWS V14.01,2013-06-26 20:51:00,
2013-06-26 15:56:00,88.6,70.4,29.68,NE,40,1.0,7.0,55,0.00,,,0.00,VWS V14.01,2013-06-26 20:56:00,
2013-06-26 16:02:00,88.7,71.0,29.68,North,5,1.0,5.0,56,0.00,,,0.00,VWS V14.01,2013-06-26 21:02:00,
2013-06-26 16:07:00,88.5,71.3,29.68,NNW,335,0.0,5.0,57,0.00,,,0.00,VWS V14.01,2013-06-26 21:07:00,
2013-06-26 16:12:00,88.3,70.6,29.69,North,355,0.0,5.0,56,0.00,,,0.00,VWS V14.01,2013-06-26 21:12:00,
2013-06-26 16:17:00,88.2,70.0,29.69,NNW,348,1.0,10.0,55,0.00,,,0.00,VWS V14.01,2013-06-26 21:17:00,
2013-06-26 16:22:00,88.1,69.4,29.69,NNE,28,1.0,10.0,54,0.00,,,0.00,VWS V14.01,2013-06-26 21:22:00,
2013-06-26 16:27:00,88.1,69.9,29.69,South,174,1.0,10.0,55,0.00,,,0.00,VWS V14.01,2013-06-26 21:27:00,
2013-06-26 16:32:00,88.3,70.1,29.69,WNW,303,0.0,2.0,55,0.00,,,0.00,VWS V14.01,2013-06-26 21:32:00,
2013-06-26 16:38:00,88.4,70.2,29.69,North,5,0.0,3.0,55,0.00,,,0.00,VWS V14.01,2013-06-26 21:38:00,
2013-06-26 16:43:00,88.5,69.2,29.69,NNW,336,0.0,4.0,53,0.00,,,0.00,VWS V14.01,2013-06-26 21:43:00,
2013-06-26 16:48:00,88.8,70.6,29.69,SSE,163,0.0,1.0,55,0.00,,,0.00,VWS V14.01,2013-06-26 21:48:00,
2013-06-26 16:53:00,88.7,69.9,29.69,SSE,165,1.0,4.0,54,0.00,,,0.00,VWS V14.01,2013-06-26 21:53:00,
2013-06-26 16:58:00,88.6,70.9,29.69,SSE,165,0.0,4.0,56,0.00,,,0.00,VWS V14.01,2013-06-26 21:58:00,
2013-06-26 17:03:00,88.5,70.3,29.69,West,279,0.0,4.0,55,0.00,,,0.00,VWS V14.01,2013-06-26 22:03:00,
2013-06-26 17:08:00,88.1,69.9,29.69,NNW,337,4.0,6.0,55,0.00,,,0.00,VWS V14.01,2013-06-26 22:08:00,
2013-06-26 17:13:00,87.9,69.2,29.69,NE,34,0.0,6.0,54,0.00,,,0.00,VWS V14.01,2013-06-26 22:13:00,
2013-06-26 17:18:00,88.0,69.8,29.69,SE,136,0.0,3.0,55,0.00,,,0.00,VWS V14.01,2013-06-26 22:18:00,
2013-06-26 17:23:00,88.0,69.8,29.69,SE,125,0.0,3.0,55,0.00,,,0.00,VWS V14.01,2013-06-26 22:23:00,
2013-06-26 17:28:00,87.9,69.7,29.69,West,274,0.0,7.0,55,0.00,,,0.00,VWS V14.01,2013-06-26 22:28:00,
2013-06-26 17:34:00,87.6,69.4,29.69,ENE,65,0.0,7.0,55,0.00,,,0.00,VWS V14.01,2013-06-26 22:34:00,
2013-06-26 17:39:00,87.3,69.7,29.69,NNW,336,0.0,7.0,56,0.00,,,0.00,VWS V14.01,2013-06-26 22:39:00,
2013-06-26 17:44:00,87.2,69.6,29.69,ENE,71,0.0,0.0,56,0.00,,,0.00,VWS V14.01,2013-06-26 22:44:00,
2013-06-26 17:49:00,87.0,69.4,29.69,SE,144,2.0,4.0,56,0.00,,,0.00,VWS V14.01,2013-06-26 22:49:00,
2013-06-26 17:54:00,86.9,69.8,29.69,NW,320,2.0,4.0,57,0.00,,,0.00,VWS V14.01,2013-06-26 22:54:00,
2013-06-26 17:59:00,86.8,68.7,29.69,North,5,0.0,2.0,55,0.00,,,0.00,VWS V14.01,2013-06-26 22:59:00,
2013-06-26 18:04:00,86.9,69.3,29.69,ENE,64,1.0,2.0,56,0.00,,,0.00,VWS V14.01,2013-06-26 23:04:00,
2013-06-26 18:09:00,86.8,69.2,29.69,South,174,1.0,3.0,56,0.00,,,0.00,VWS V14.01,2013-06-26 23:09:00,
2013-06-26 18:14:00,86.9,69.8,29.69,SSW,198,0.0,1.0,57,0.00,,,0.00,VWS V14.01,2013-06-26 23:14:00,
2013-06-26 18:19:00,86.7,69.1,29.70,ESE,123,0.0,6.0,56,0.00,,,0.00,VWS V14.01,2013-06-26 23:19:00,
2013-06-26 18:25:00,86.6,69.6,29.70,South,169,0.0,6.0,57,0.00,,,0.00,VWS V14.01,2013-06-26 23:25:00,
2013-06-26 18:30:00,86.5,69.0,29.70,NE,48,1.0,1.0,56,0.00,,,0.00,VWS V14.01,2013-06-26 23:30:00,
2013-06-26 18:35:00,86.4,69.9,29.70,ENE,59,0.0,3.0,58,0.00,,,0.00,VWS V14.01,2013-06-26 23:35:00,
2013-06-26 18:40:00,86.1,68.6,29.70,NE,52,0.0,3.0,56,0.00,,,0.00,VWS V14.01,2013-06-26 23:40:00,
2013-06-26 18:45:00,85.7,69.2,29.70,NNW,338,0.0,1.0,58,0.00,,,0.00,VWS V14.01,2013-06-26 23:45:00,
2013-06-26 18:50:00,85.2,69.3,29.70,SSE,153,0.0,1.0,59,0.00,,,0.00,VWS V14.01,2013-06-26 23:50:00,
2013-06-26 18:55:00,84.5,69.1,29.70,SSE,149,0.0,2.0,60,0.00,,,0.00,VWS V14.01,2013-06-26 23:55:00,
2013-06-26 19:00:00,83.9,69.0,29.70,SSE,149,0.0,1.0,61,0.00,,,0.00,VWS V14.01,2013-06-27 00:00:00,
2013-06-26 19:05:00,83.6,68.7,29.70,North,11,0.0,2.0,61,0.00,,,0.00,VWS V14.01,2013-06-27 00:05:00,
2013-06-26 19:10:00,83.2,69.3,29.71,NNE,26,0.0,2.0,63,0.00,,,0.00,VWS V14.01,2013-06-27 00:10:00,
2013-06-26 19:15:00,82.9,69.5,29.70,NNE,24,0.0,1.0,64,0.00,,,0.00,VWS V14.01,2013-06-27 00:15:00,
2013-06-26 19:20:00,82.5,69.1,29.71,NNE,29,0.0,1.0,64,0.00,,,0.00,VWS V14.01,2013-06-27 00:20:00,
2013-06-26 19:26:00,82.4,69.5,29.71,NNE,32,0.0,1.0,65,0.00,,,0.00,VWS V14.01,2013-06-27 00:26:00,
2013-06-26 19:31:00,82.3,68.9,29.71,NNE,32,0.0,1.0,64,0.00,,,0.00,VWS V14.01,2013-06-27 00:31:00,
2013-06-26 19:36:00,82.1,68.3,29.71,NE,54,0.0,2.0,63,0.00,,,0.00,VWS V14.01,2013-06-27 00:36:00,
2013-06-26 19:41:00,82.0,68.6,29.71,NE,54,0.0,2.0,64,0.00,,,0.00,VWS V14.01,2013-06-27 00:41:00,
2013-06-26 19:46:00,81.8,68.4,29.71,NE,54,0.0,0.0,64,0.00,,,0.00,VWS V14.01,2013-06-27 00:46:00,
2013-06-26 19:51:00,81.6,67.8,29.71,NE,54,0.0,1.0,63,0.00,,,0.00,VWS V14.01,2013-06-27 00:51:00,
2013-06-26 19:56:00,81.4,68.1,29.71,NNE,28,0.0,1.0,64,0.00,,,0.00,VWS V14.01,2013-06-27 00:56:00,
2013-06-26 20:01:00,81.2,67.9,29.72,East,96,0.0,0.0,64,0.00,,,0.00,VWS V14.01,2013-06-27 01:01:00,
2013-06-26 20:06:00,81.0,67.7,29.72,SSE,154,0.0,3.0,64,0.00,,,0.00,VWS V14.01,2013-06-27 01:06:00,
2013-06-26 20:11:00,80.8,67.5,29.72,SE,145,0.0,3.0,64,0.00,,,0.00,VWS V14.01,2013-06-27 01:11:00,
2013-06-26 20:16:00,80.6,67.3,29.72,South,188,0.0,0.0,64,0.00,,,0.00,VWS V14.01,2013-06-27 01:16:00,
2013-06-26 20:21:00,80.3,67.5,29.72,South,188,0.0,1.0,65,0.00,,,0.00,VWS V14.01,2013-06-27 01:21:00,
2013-06-26 20:27:00,80.1,67.3,29.72,South,185,0.0,1.0,65,0.00,,,0.00,VWS V14.01,2013-06-27 01:27:00,
2013-06-26 20:30:00,79.8,67.4,29.72,South,185,0.0,0.0,66,0.00,,,0.00,VWS V14.01,2013-06-27 01:30:00,
2013-06-26 20:35:00,79.6,67.2,29.72,South,184,0.0,1.0,66,0.00,,,0.00,VWS V14.01,2013-06-27 01:35:00,
2013-06-26 20:41:00,79.4,67.5,29.72,South,184,0.0,1.0,67,0.00,,,0.00,VWS V14.01,2013-06-27 01:41:00,
2013-06-26 20:46:00,79.2,67.3,29.73,South,185,0.0,0.0,67,0.00,,,0.00,VWS V14.01,2013-06-27 01:46:00,
2013-06-26 20:51:00,79.0,67.6,29.72,South,185,0.0,1.0,68,0.00,,,0.00,VWS V14.01,2013-06-27 01:51:00,
2013-06-26 20:56:00,78.7,67.3,29.73,SSW,192,0.0,1.0,68,0.00,,,0.00,VWS V14.01,2013-06-27 01:56:00,
2013-06-26 21:01:00,78.5,67.5,29.73,SSW,193,0.0,0.0,69,0.00,,,0.00,VWS V14.01,2013-06-27 02:01:00,
2013-06-26 21:06:00,78.3,67.3,29.73,SSW,193,0.0,0.0,69,0.00,,,0.00,VWS V14.01,2013-06-27 02:06:00,
2013-06-26 21:11:00,78.1,67.5,29.73,SSW,194,0.0,1.0,70,0.00,,,0.00,VWS V14.01,2013-06-27 02:11:00,
2013-06-26 21:16:00,77.8,67.2,29.73,SSW,194,0.0,0.0,70,0.00,,,0.00,VWS V14.01,2013-06-27 02:16:00,
2013-06-26 21:21:00,77.6,67.1,29.74,SSW,192,0.0,1.0,70,0.00,,,0.00,VWS V14.01,2013-06-27 02:21:00,
2013-06-26 21:26:00,77.4,66.9,29.74,SSW,192,0.0,1.0,70,0.00,,,0.00,VWS V14.01,2013-06-27 02:26:00,
2013-06-26 21:31:00,77.2,67.1,29.74,SSW,192,0.0,0.0,71,0.00,,,0.00,VWS V14.01,2013-06-27 02:31:00,
2013-06-26 21:37:00,76.9,66.8,29.74,SSW,192,0.0,1.0,71,0.00,,,0.00,VWS V14.01,2013-06-27 02:37:00,
2013-06-26 21:42:00,76.7,66.6,29.74,SSW,192,0.0,1.0,71,0.00,,,0.00,VWS V14.01,2013-06-27 02:42:00,
2013-06-26 21:47:00,76.4,66.3,29.75,SSW,192,0.0,0.0,71,0.00,,,0.00,VWS V14.01,2013-06-27 02:47:00,
2013-06-26 21:52:00,76.2,66.5,29.75,SSW,192,0.0,1.0,72,0.00,,,0.00,VWS V14.01,2013-06-27 02:52:00,
2013-06-26 21:57:00,75.8,66.1,29.75,SSW,192,0.0,1.0,72,0.00,,,0.00,VWS V14.01,2013-06-27 02:57:00,
2013-06-26 22:02:00,75.6,65.9,29.75,SSW,192,0.0,0.0,72,0.00,,,0.00,VWS V14.01,2013-06-27 03:02:00,
2013-06-26 22:07:00,75.5,65.8,29.76,SSW,192,0.0,1.0,72,0.00,,,0.00,VWS V14.01,2013-06-27 03:07:00,
2013-06-26 22:12:00,75.3,66.1,29.76,SSW,192,0.0,1.0,73,0.00,,,0.00,VWS V14.01,2013-06-27 03:12:00,
2013-06-26 22:17:00,75.0,65.4,29.76,SSW,192,0.0,0.0,72,0.00,,,0.00,VWS V14.01,2013-06-27 03:17:00,
2013-06-26 22:22:00,74.9,65.3,29.76,SSW,192,0.0,0.0,72,0.00,,,0.00,VWS V14.01,2013-06-27 03:22:00,
2013-06-26 22:27:00,74.8,65.2,29.76,SSW,192,0.0,0.0,72,0.00,,,0.00,VWS V14.01,2013-06-27 03:27:00,
2013-06-26 22:33:00,74.7,65.1,29.77,SSW,192,0.0,0.0,72,0.00,,,0.00,VWS V14.01,2013-06-27 03:33:00,
2013-06-26 22:38:00,74.6,65.4,29.77,SSW,192,0.0,0.0,73,0.00,,,0.00,VWS V14.01,2013-06-27 03:38:00,
2013-06-26 22:43:00,74.5,65.3,29.77,SSW,192,0.0,0.0,73,0.00,,,0.00,VWS V14.01,2013-06-27 03:43:00,
2013-06-26 22:48:00,74.3,65.5,29.77,SSW,192,0.0,0.0,74,0.00,,,0.00,VWS V14.01,2013-06-27 03:48:00,
2013-06-26 22:53:00,74.1,65.3,29.78,SSW,192,0.0,0.0,74,0.00,,,0.00,VWS V14.01,2013-06-27 03:53:00,
2013-06-26 22:58:00,74.0,65.6,29.77,SSW,192,0.0,0.0,75,0.00,,,0.00,VWS V14.01,2013-06-27 03:58:00,
2013-06-26 23:01:00,73.9,65.5,29.78,SSW,192,0.0,0.0,75,0.00,,,0.00,VWS V14.01,2013-06-27 04:01:00,
2013-06-26 23:02:00,73.8,65.4,29.77,SSW,192,0.0,0.0,75,0.00,,,0.00,VWS V14.01,2013-06-27 04:02:00,
2013-06-26 23:04:00,73.8,65.4,29.77,SSW,192,0.0,0.0,75,0.00,,,0.00,VWS V14.01,2013-06-27 04:04:00,
2013-06-26 23:09:00,73.8,65.8,29.78,SSW,192,0.0,0.0,76,0.00,,,0.00,VWS V14.01,2013-06-27 04:09:00,
2013-06-26 23:14:00,73.8,65.8,29.78,SSW,192,0.0,0.0,76,0.00,,,0.00,VWS V14.01,2013-06-27 04:14:00,
2013-06-26 23:19:00,73.9,65.9,29.78,SSW,192,0.0,0.0,76,0.00,,,0.00,VWS V14.01,2013-06-27 04:19:00,
2013-06-26 23:24:00,74.0,66.0,29.78,SSW,192,0.0,0.0,76,0.00,,,0.00,VWS V14.01,2013-06-27 04:24:00,
2013-06-26 23:29:00,73.9,65.9,29.78,SSW,192,0.0,0.0,76,0.00,,,0.00,VWS V14.01,2013-06-27 04:29:00,
2013-06-26 23:34:00,73.9,65.9,29.78,SSW,192,0.0,0.0,76,0.00,,,0.00,VWS V14.01,2013-06-27 04:34:00,
2013-06-26 23:39:00,73.8,65.8,29.78,SSW,192,0.0,0.0,76,0.00,,,0.00,VWS V14.01,2013-06-27 04:39:00,
2013-06-26 23:45:00,73.7,65.7,29.77,SSW,192,0.0,0.0,76,0.00,,,0.00,VWS V14.01,2013-06-27 04:45:00,
2013-06-26 23:50:00,73.6,65.6,29.77,SSW,192,0.0,0.0,76,0.00,,,0.00,VWS V14.01,2013-06-27 04:50:00,
2013-06-26 23:55:00,73.6,65.6,29.77,SSW,192,0.0,0.0,76,0.00,,,0.00,VWS V14.01,2013-06-27 04:55:00,